Home > Weather > Sevierville > Past weeks

Flag for USA Past Weather in Sevierville, Tennessee, USA — Yesterday and Last 2 Weeks

Now
71 °F

Broken clouds.


Feels Like: 76 °F
Forecast: 58 / 84 °F
Wind: No wind

Location: McGhee Tyson Airport

Current Time: May 25, 2016 at 11:07:58 AM

Latest Report: May 25, 2016 at 9:53 AM


Visibility: 10 mi

Pressure: 30.22 "Hg

Humidity: 59%

Dew Point: 56 °F

Location of SeviervilleLocation

Past Weather in Sevierville — Graph

°F

Sevierville Temperature Yesterday

Maximum temperature yesterday: 82 °F (at 3:53 PM)
Minimum temperature yesterday: 51 °F (at 6:53 AM)
Average temperature yesterday: 69 °F

High & Low Weather Summary for the Past Weeks

 TemperatureHumidityPressure
High82 °F (May 10, 2:53 PM)97% (May 20, 6:00 PM)30.24 "Hg (May 20, 6:00 PM)
Low42 °F (May 15, 5:53 AM)29% (May 24, 5:53 PM)29.91 "Hg (May 14, 1:53 PM)
Average66 °F66%30.04 "Hg
* Reported May 10 8:53 AM — May 25 8:53 AM, Sevierville, Weather by CustomWeather, © 2016

Note: Actual official high and low records may vary slightly from our data, if they occured in-between our weather recording intervals... More about our weather records

Advertising

Sevierville Weather History for the Previous 24 Hours

Scroll right to see more
 ConditionsComfort  
Time TempWeatherWind HumidityBarometerVisibility
8:53 AM
Wed, May 25
66 °FPartly sunny.No wind68%30.20 "Hg10 mi
6:53 AM60 °FPassing clouds.5 mph75%30.16 "Hg10 mi
5:53 AM58 °FPassing clouds.5 mph84%30.13 "Hg10 mi
4:53 AM60 °FPassing clouds.5 mph78%30.12 "Hg10 mi
3:53 AM60 °FClear.No wind83%30.12 "Hg10 mi
2:53 AM62 °FClear.3 mph70%30.12 "Hg10 mi
1:53 AM65 °FClear.3 mph61%30.12 "Hg10 mi
12:53 AM68 °FPassing clouds.No wind55%30.12 "Hg10 mi
11:53 PM
Tue, May 24
67 °FClear.3 mph59%30.12 "Hg10 mi
10:53 PM71 °FPassing clouds.No wind49%30.12 "Hg10 mi
9:53 PM74 °FPassing clouds.No wind45%30.10 "Hg10 mi
8:53 PM76 °FPassing clouds.6 mph40%30.09 "Hg10 mi
6:53 PM81 °FPassing clouds.6 mph33%30.08 "Hg10 mi
5:53 PM82 °FScattered clouds.7 mph29%30.08 "Hg10 mi
4:53 PM81 °FScattered clouds.6 mph30%30.08 "Hg10 mi
3:53 PM82 °FScattered clouds.6 mph33%30.09 "Hg10 mi
2:53 PM81 °FPassing clouds.8 mph34%30.11 "Hg10 mi
1:53 PM79 °FScattered clouds.7 mph31%30.12 "Hg10 mi
12:53 PM77 °FPartly sunny.No wind42%30.14 "Hg10 mi
11:53 AM73 °FPartly sunny.3 mph48%30.14 "Hg10 mi
Weather by CustomWeather, © 2016

See weather overviewHow to use our weather pages